Time,TemperatureF,DewpointF,PressureIn,WindDirection,WindDirectionDegrees,WindSpeedMPH,WindSpeedGustMPH,Humidity,HourlyPrecipIn,Conditions,Clouds,dailyrainin,SoftwareType,DateUTC
2013-11-03 00:01:00,43.0,34.6,29.29,NNE,22,1.1,2.5,72,0.01,,---,0.00,VWS V14.01,2013-11-03 04:01:00,
2013-11-03 00:06:00,42.8,34.4,29.29,ENE,68,0.4,0.4,72,0.00,,---,0.00,VWS V14.01,2013-11-03 04:06:00,
2013-11-03 00:11:00,42.8,34.0,29.30,SE,135,2.7,2.7,71,0.00,CLR,SKC,0.03,WeatherDisplay:10.37,2013-11-03 04:11:00,
2013-11-03 00:16:00,42.8,34.4,29.30,ESE,112,0.2,0.4,72,0.00,,---,0.00,VWS V14.01,2013-11-03 04:16:00,
2013-11-03 00:21:00,42.6,34.2,29.30,ENE,68,2.7,2.7,72,0.00,CLR,SKC,0.03,WeatherDisplay:10.37,2013-11-03 04:21:00,
2013-11-03 00:26:00,42.6,34.2,29.30,North,0,2.7,2.7,72,0.00,CLR,SKC,0.03,WeatherDisplay:10.37,2013-11-03 04:26:00,
2013-11-03 08:15:00,42.4,34.0,29.30,NNE,22,3.5,3.5,72,0.00,CLR,SKC,0.03,WeatherDisplay:10.37,2013-11-03 13:15:00,
2013-11-03 08:16:00,42.4,34.0,29.30,NNE,22,3.5,3.5,72,0.00,CLR,SKC,0.03,WeatherDisplay:10.37,2013-11-03 13:16:00,
2013-11-03 08:17:00,38.5,26.6,29.60,NNW,338,3.5,3.5,62,0.00,CLR,SKC,0.03,WeatherDisplay:10.37,2013-11-03 13:17:00,
2013-11-03 08:18:00,38.5,26.2,29.60,NNE,22,0.9,161.1,61,0.00,,---,0.03,VWS V14.01,2013-11-03 13:18:00,
2013-11-03 09:18:00,38.5,26.2,29.60,NNE,22,0.9,161.1,61,0.00,,---,0.03,VWS V14.01,2013-11-03 14:18:00,
2013-11-03 09:23:00,38.7,24.4,29.60,NNE,22,2.5,2.5,56,0.00,,---,0.00,VWS V14.01,2013-11-03 14:23:00,
2013-11-03 09:28:00,38.7,24.7,29.60,WNW,292,3.5,3.5,57,0.00,CLR,SKC,0.03,WeatherDisplay:10.37,2013-11-03 14:28:00,
2013-11-03 09:33:00,38.9,25.4,29.61,South,180,0.4,1.1,58,0.00,,---,0.00,VWS V14.01,2013-11-03 14:33:00,
2013-11-03 09:38:00,39.2,26.1,29.61,North,0,2.7,2.7,59,0.00,CLR,SKC,0.03,WeatherDisplay:10.37,2013-11-03 14:38:00,
2013-11-03 09:43:00,39.2,25.3,29.61,NE,45,1.3,3.1,57,0.00,,---,0.00,VWS V14.01,2013-11-03 14:43:00,
2013-11-03 09:48:00,39.2,24.8,29.61,NNE,22,0.2,0.2,56,0.00,,---,0.00,VWS V14.01,2013-11-03 14:48:00,
2013-11-03 09:53:00,39.2,23.0,29.61,ESE,112,2.7,2.7,52,0.00,CLR,SKC,0.03,WeatherDisplay:10.37,2013-11-03 14:53:00,
2013-11-03 09:58:00,38.9,22.8,29.61,ESE,112,0.9,2.0,52,0.00,,---,0.00,VWS V14.01,2013-11-03 14:58:00,
2013-11-03 10:03:00,39.1,22.5,29.61,ESE,112,0.2,1.1,51,0.00,,---,0.00,VWS V14.01,2013-11-03 15:03:00,
2013-11-03 10:08:00,39.2,22.1,29.61,North,0,0.2,2.5,50,0.00,,---,0.00,VWS V14.01,2013-11-03 15:08:00,
2013-11-03 10:13:00,39.4,23.7,29.62,NNE,22,2.7,2.7,53,0.00,,---,0.00,VWS V14.01,2013-11-03 15:13:00,
2013-11-03 10:18:00,39.6,22.0,29.62,ESE,112,2.2,2.2,49,0.00,,---,0.00,VWS V14.01,2013-11-03 15:18:00,
2013-11-03 10:23:00,40.0,22.4,29.63,NNE,22,0.4,1.1,49,0.00,,---,0.00,VWS V14.01,2013-11-03 15:23:00,
2013-11-03 10:28:00,40.3,23.6,29.63,ESE,112,2.3,2.3,51,0.00,CLR,SKC,0.03,WeatherDisplay:10.37,2013-11-03 15:28:00,
2013-11-03 10:33:00,40.5,22.4,29.63,East,90,0.0,0.9,48,0.00,,---,0.00,VWS V14.01,2013-11-03 15:33:00,
2013-11-03 10:38:00,40.3,22.6,29.63,NNE,22,2.7,2.7,49,0.00,CLR,SKC,0.03,WeatherDisplay:10.37,2013-11-03 15:38:00,
2013-11-03 10:43:00,40.1,21.5,29.63,SW,225,0.4,1.3,47,0.00,,---,0.00,VWS V14.01,2013-11-03 15:43:00,
2013-11-03 10:48:00,39.9,21.8,29.63,NNW,338,2.7,2.7,48,0.00,CLR,SKC,0.03,WeatherDisplay:10.37,2013-11-03 15:48:00,
2013-11-03 10:53:00,40.0,21.4,29.63,NE,45,1.3,1.3,47,0.00,,---,0.00,VWS V14.01,2013-11-03 15:53:00,
2013-11-03 10:58:00,40.0,21.4,29.63,ENE,68,0.0,1.8,47,0.00,,---,0.00,VWS V14.01,2013-11-03 15:58:00,
2013-11-03 11:03:00,40.0,20.4,29.63,East,90,0.7,0.7,45,0.00,,---,0.00,VWS V14.01,2013-11-03 16:03:00,
2013-11-03 11:08:00,40.9,21.2,29.63,NNE,22,4.7,4.7,45,0.00,,---,0.00,VWS V14.01,2013-11-03 16:08:00,
2013-11-03 11:13:00,41.0,18.5,29.63,North,0,2.3,2.3,40,0.00,CLR,SKC,0.03,WeatherDisplay:10.37,2013-11-03 16:13:00,
2013-11-03 11:18:00,40.9,20.7,29.63,SW,225,0.4,1.6,44,0.00,,---,0.00,VWS V14.01,2013-11-03 16:18:00,
2013-11-03 11:23:00,40.8,17.7,29.63,NNW,338,2.7,2.7,39,0.00,CLR,SKC,0.03,WeatherDisplay:10.37,2013-11-03 16:23:00,
2013-11-03 11:28:00,40.7,18.9,29.63,SW,225,0.4,0.4,41,0.00,,---,0.00,VWS V14.01,2013-11-03 16:28:00,
2013-11-03 11:33:00,40.9,19.6,29.63,WSW,248,0.4,0.7,42,0.00,,---,0.00,VWS V14.01,2013-11-03 16:33:00,
2013-11-03 11:38:00,41.0,18.5,29.63,SE,135,2.7,2.7,40,0.00,CLR,SKC,0.03,WeatherDisplay:10.37,2013-11-03 16:38:00,
2013-11-03 11:43:00,41.0,17.3,29.63,East,90,2.7,2.7,38,0.00,CLR,SKC,0.03,WeatherDisplay:10.37,2013-11-03 16:43:00,
2013-11-03 11:48:00,40.6,18.2,29.63,NE,45,2.7,2.7,40,0.00,CLR,SKC,0.03,WeatherDisplay:10.37,2013-11-03 16:48:00,
2013-11-03 11:53:00,40.7,17.7,29.63,North,0,6.5,6.5,39,0.00,,---,0.00,VWS V14.01,2013-11-03 16:53:00,
2013-11-03 11:58:00,41.0,19.1,29.63,NE,45,3.5,3.5,41,0.00,CLR,SKC,0.03,WeatherDisplay:10.37,2013-11-03 16:58:00,
2013-11-03 12:03:00,41.4,18.3,29.63,NE,45,0.4,2.0,39,0.00,,---,0.00,VWS V14.01,2013-11-03 17:03:00,
2013-11-03 12:08:00,41.4,18.2,29.63,SSE,158,2.7,2.7,39,0.00,CLR,SKC,0.03,WeatherDisplay:10.37,2013-11-03 17:08:00,
2013-11-03 12:13:00,41.8,18.1,29.63,North,0,3.1,3.1,38,0.00,,---,0.00,VWS V14.01,2013-11-03 17:13:00,
2013-11-03 12:18:00,41.5,17.2,29.63,NNE,22,3.5,3.5,37,0.00,CLR,SKC,0.03,WeatherDisplay:10.37,2013-11-03 17:18:00,
2013-11-03 12:23:00,41.5,17.2,29.63,SW,225,2.7,2.7,37,0.00,CLR,SKC,0.03,WeatherDisplay:10.37,2013-11-03 17:23:00,
2013-11-03 12:28:00,41.4,17.7,29.63,NNE,22,2.2,3.6,38,0.00,,---,0.00,VWS V14.01,2013-11-03 17:28:00,
2013-11-03 12:33:00,41.4,15.8,29.63,SSE,158,0.7,0.7,35,0.00,,---,0.00,VWS V14.01,2013-11-03 17:33:00,
2013-11-03 12:38:00,41.7,17.9,29.63,West,270,2.7,2.7,38,0.00,CLR,SKC,0.03,WeatherDisplay:10.37,2013-11-03 17:38:00,
2013-11-03 12:43:00,42.1,17.1,29.63,NNE,22,1.1,2.7,36,0.00,,---,0.00,VWS V14.01,2013-11-03 17:43:00,
2013-11-03 12:48:00,42.3,17.9,29.63,SSE,158,0.0,0.4,37,0.00,,---,0.00,VWS V14.01,2013-11-03 17:48:00,
2013-11-03 12:53:00,42.5,16.8,29.63,West,270,0.4,0.4,35,0.00,,---,0.00,VWS V14.01,2013-11-03 17:53:00,
2013-11-03 12:58:00,42.6,18.1,29.63,SSW,202,2.7,0.0,37,0.00,CLR,SKC,0.03,WeatherDisplay:10.37,2013-11-03 17:58:00,
2013-11-03 13:03:00,42.8,18.9,29.63,SE,135,2.7,2.7,38,0.00,CLR,SKC,0.03,WeatherDisplay:10.37,2013-11-03 18:03:00,
2013-11-03 13:08:00,43.0,19.1,29.64,WSW,248,1.1,2.9,38,0.00,,---,0.00,VWS V14.01,2013-11-03 18:08:00,
2013-11-03 13:13:00,43.3,19.4,29.64,SW,225,2.9,2.9,38,0.00,CLR,SKC,0.03,WeatherDisplay:10.37,2013-11-03 18:13:00,
2013-11-03 13:18:00,43.0,18.5,29.64,North,0,2.7,2.7,37,0.00,CLR,SKC,0.03,WeatherDisplay:10.37,2013-11-03 18:18:00,
2013-11-03 13:23:00,42.8,18.9,29.64,WNW,292,3.8,3.8,38,0.00,CLR,SKC,0.03,WeatherDisplay:10.37,2013-11-03 18:23:00,
2013-11-03 13:28:00,42.8,19.0,29.64,WNW,292,1.6,1.6,38,0.00,,---,0.00,VWS V14.01,2013-11-03 18:28:00,
2013-11-03 13:33:00,42.8,18.9,29.65,West,270,2.7,2.7,38,0.00,CLR,SKC,0.03,WeatherDisplay:10.37,2013-11-03 18:33:00,
2013-11-03 13:38:00,43.0,20.3,29.65,NE,45,2.3,0.0,40,0.00,CLR,SKC,0.03,WeatherDisplay:10.37,2013-11-03 18:38:00,
2013-11-03 13:43:00,42.8,19.5,29.65,NNW,338,2.3,0.0,39,0.00,CLR,SKC,0.03,WeatherDisplay:10.37,2013-11-03 18:43:00,
2013-11-03 13:48:00,42.5,19.3,29.65,East,90,1.1,1.1,39,0.00,,---,0.00,VWS V14.01,2013-11-03 18:48:00,
2013-11-03 13:53:00,42.7,20.1,29.65,NE,45,1.1,2.0,40,0.00,,---,0.00,VWS V14.01,2013-11-03 18:53:00,
2013-11-03 13:58:00,42.6,18.8,29.66,North,0,5.2,5.2,38,0.00,CLR,SKC,0.03,WeatherDisplay:10.37,2013-11-03 18:58:00,
2013-11-03 14:03:00,42.5,19.3,29.66,South,180,0.7,0.7,39,0.00,,---,0.00,VWS V14.01,2013-11-03 19:03:00,
2013-11-03 14:08:00,42.3,19.6,29.66,NNW,338,3.8,3.8,40,0.00,CLR,SKC,0.03,WeatherDisplay:10.37,2013-11-03 19:08:00,
2013-11-03 14:13:00,42.3,19.1,29.67,ENE,68,0.9,2.5,39,0.00,,---,0.00,VWS V14.01,2013-11-03 19:13:00,
2013-11-03 14:18:00,42.1,18.3,29.67,SSW,202,8.1,8.1,38,0.00,CLR,SKC,0.03,WeatherDisplay:10.37,2013-11-03 19:18:00,
2013-11-03 14:23:00,42.1,17.6,29.67,SW,225,3.5,3.5,37,0.00,CLR,SKC,0.03,WeatherDisplay:10.37,2013-11-03 19:23:00,
2013-11-03 14:28:00,41.8,16.2,29.67,North,0,0.9,2.9,35,0.00,,---,0.00,VWS V14.01,2013-11-03 19:28:00,
2013-11-03 14:33:00,41.4,17.0,29.68,NE,45,2.3,2.3,37,0.00,CLR,SKC,0.03,WeatherDisplay:10.37,2013-11-03 19:33:00,
2013-11-03 14:38:00,41.4,17.7,29.68,WSW,248,0.2,3.4,38,0.00,,---,0.00,VWS V14.01,2013-11-03 19:38:00,
2013-11-03 14:43:00,41.4,17.1,29.68,SSW,202,0.9,2.9,37,0.00,,---,0.00,VWS V14.01,2013-11-03 19:43:00,
2013-11-03 14:48:00,41.0,16.7,29.68,North,0,0.0,4.7,37,0.00,,---,0.00,VWS V14.01,2013-11-03 19:48:00,
2013-11-03 14:53:00,40.7,16.5,29.69,WNW,292,2.2,3.1,37,0.00,,---,0.00,VWS V14.01,2013-11-03 19:53:00,
2013-11-03 14:58:00,40.5,16.8,29.70,North,0,4.6,4.6,38,0.00,CLR,SKC,0.03,WeatherDisplay:10.37,2013-11-03 19:58:00,
2013-11-03 15:03:00,40.3,16.1,29.70,WNW,292,1.1,1.8,37,0.00,,---,0.00,VWS V14.01,2013-11-03 20:03:00,
2013-11-03 15:08:00,40.3,16.7,29.70,North,0,0.4,2.5,38,0.00,,---,0.00,VWS V14.01,2013-11-03 20:08:00,
2013-11-03 15:13:00,40.0,16.5,29.70,WSW,248,0.2,2.7,38,0.00,,---,0.00,VWS V14.01,2013-11-03 20:13:00,
2013-11-03 15:18:00,40.0,16.5,29.70,NNW,338,4.9,4.9,38,0.00,,---,0.00,VWS V14.01,2013-11-03 20:18:00,
2013-11-03 15:23:00,39.6,16.0,29.70,North,0,2.7,2.7,38,0.00,CLR,SKC,0.03,WeatherDisplay:10.37,2013-11-03 20:23:00,
2013-11-03 15:28:00,39.4,15.9,29.71,ENE,68,0.4,3.4,38,0.00,,---,0.00,VWS V14.01,2013-11-03 20:28:00,
2013-11-03 15:33:00,39.2,16.9,29.70,WNW,292,2.7,2.7,40,0.00,CLR,SKC,0.03,WeatherDisplay:10.37,2013-11-03 20:33:00,
2013-11-03 15:38:00,39.2,16.9,29.70,NNE,22,3.3,3.3,40,0.00,CLR,SKC,0.03,WeatherDisplay:10.37,2013-11-03 20:38:00,
2013-11-03 15:43:00,38.9,16.6,29.71,WNW,292,0.4,3.4,40,0.00,,---,0.00,VWS V14.01,2013-11-03 20:43:00,
2013-11-03 15:48:00,38.9,17.2,29.71,WNW,292,0.7,0.7,41,0.00,,---,0.00,VWS V14.01,2013-11-03 20:48:00,
2013-11-03 15:53:00,38.7,15.8,29.71,East,90,2.7,2.7,39,0.00,CLR,SKC,0.03,WeatherDisplay:10.37,2013-11-03 20:53:00,
2013-11-03 15:58:00,38.5,16.3,29.71,NNE,22,1.8,1.8,40,0.00,,---,0.00,VWS V14.01,2013-11-03 20:58:00,
2013-11-03 16:03:00,38.3,16.1,29.72,North,0,1.3,3.1,40,0.00,,---,0.00,VWS V14.01,2013-11-03 21:03:00,
2013-11-03 16:08:00,38.1,15.9,29.72,NNE,22,2.7,2.7,40,0.00,CLR,SKC,0.03,WeatherDisplay:10.37,2013-11-03 21:08:00,
2013-11-03 16:13:00,37.8,15.7,29.72,WSW,248,0.4,1.1,40,0.00,,---,0.00,VWS V14.01,2013-11-03 21:13:00,
2013-11-03 16:18:00,37.4,16.4,29.73,North,0,0.2,2.5,42,0.00,,---,0.00,VWS V14.01,2013-11-03 21:18:00,
2013-11-03 16:23:00,37.4,16.9,29.73,NW,315,2.7,2.7,43,0.00,CLR,SKC,0.03,WeatherDisplay:10.37,2013-11-03 21:23:00,
2013-11-03 16:28:00,37.1,17.2,29.73,South,180,0.4,0.7,44,0.00,,---,0.00,VWS V14.01,2013-11-03 21:28:00,
2013-11-03 16:33:00,36.7,16.9,29.74,SW,225,0.0,0.4,44,0.00,,---,0.00,VWS V14.01,2013-11-03 21:33:00,
2013-11-03 16:38:00,36.3,17.0,29.74,SE,135,2.3,0.0,45,0.00,CLR,SKC,0.03,WeatherDisplay:10.37,2013-11-03 21:38:00,
2013-11-03 16:43:00,36.0,17.2,29.75,SE,135,0.0,0.9,46,0.00,,---,0.00,VWS V14.01,2013-11-03 21:43:00,
2013-11-03 16:48:00,35.6,17.3,29.75,SSW,202,2.7,2.7,47,0.00,CLR,SKC,0.03,WeatherDisplay:10.37,2013-11-03 21:48:00,
2013-11-03 16:53:00,35.1,17.8,29.75,NE,45,2.7,2.7,49,0.00,CLR,SKC,0.03,WeatherDisplay:10.37,2013-11-03 21:53:00,
2013-11-03 16:58:00,34.7,17.0,29.76,North,0,0.2,1.1,48,0.00,,---,0.00,VWS V14.01,2013-11-03 21:58:00,
2013-11-03 17:03:00,34.9,16.7,29.76,NNE,22,0.2,3.8,47,0.00,,---,0.00,VWS V14.01,2013-11-03 22:03:00,
2013-11-03 17:08:00,34.9,16.7,29.77,ESE,112,0.0,0.2,47,0.00,,---,0.00,VWS V14.01,2013-11-03 22:08:00,
2013-11-03 17:13:00,34.7,17.5,29.77,SW,225,0.0,0.4,49,0.00,,---,0.00,VWS V14.01,2013-11-03 22:13:00,
2013-11-03 17:18:00,34.2,17.5,29.78,SSE,158,0.2,0.4,50,0.00,,---,0.00,VWS V14.01,2013-11-03 22:18:00,
2013-11-03 17:23:00,33.8,17.1,29.78,NE,45,0.9,0.9,50,0.00,,---,0.00,VWS V14.01,2013-11-03 22:23:00,
2013-11-03 17:28:00,33.4,16.8,29.78,NE,45,2.3,2.3,50,0.00,CLR,SKC,0.03,WeatherDisplay:10.37,2013-11-03 22:28:00,
2013-11-03 17:33:00,33.4,17.2,29.78,NNE,22,2.7,2.7,51,0.00,CLR,SKC,0.03,WeatherDisplay:10.37,2013-11-03 22:33:00,
2013-11-03 17:38:00,33.5,16.9,29.79,NE,45,0.2,0.4,50,0.00,,---,0.00,VWS V14.01,2013-11-03 22:38:00,
2013-11-03 17:43:00,33.1,17.8,29.79,SSE,158,2.7,2.7,53,0.00,CLR,SKC,0.03,WeatherDisplay:10.37,2013-11-03 22:43:00,
2013-11-03 17:48:00,32.6,18.2,29.80,ESE,112,0.0,0.0,55,0.00,,---,0.00,VWS V14.01,2013-11-03 22:48:00,
2013-11-03 17:53:00,32.0,17.6,29.80,ESE,112,2.7,0.0,55,0.00,CLR,SKC,0.03,WeatherDisplay:10.37,2013-11-03 22:53:00,
2013-11-03 17:58:00,32.0,17.2,29.80,ESE,112,2.7,0.0,54,0.00,CLR,SKC,0.03,WeatherDisplay:10.37,2013-11-03 22:58:00,
2013-11-03 18:03:00,31.5,17.6,29.80,ESE,112,2.7,0.0,56,0.00,CLR,SKC,0.03,WeatherDisplay:10.37,2013-11-03 23:03:00,
2013-11-03 18:08:00,31.1,16.8,29.81,ENE,68,0.0,0.0,55,0.00,,---,0.00,VWS V14.01,2013-11-03 23:08:00,
2013-11-03 18:13:00,31.0,18.8,29.81,ESE,112,0.0,0.4,60,0.00,,---,0.00,VWS V14.01,2013-11-03 23:13:00,
2013-11-03 18:18:00,30.6,16.8,29.81,ESE,112,0.0,0.0,56,0.00,,---,0.00,VWS V14.01,2013-11-03 23:18:00,
2013-11-03 18:23:00,30.4,16.6,29.81,SE,135,0.0,0.2,56,0.00,,---,0.00,VWS V14.01,2013-11-03 23:23:00,
2013-11-03 18:28:00,30.0,16.6,29.81,NNE,22,2.7,2.7,57,0.00,CLR,SKC,0.03,WeatherDisplay:10.37,2013-11-03 23:28:00,
2013-11-03 18:33:00,29.9,16.9,29.81,South,180,0.0,0.2,58,0.00,,---,0.00,VWS V14.01,2013-11-03 23:33:00,
2013-11-03 18:38:00,29.7,16.8,29.81,SE,135,0.0,0.4,58,0.00,,---,0.00,VWS V14.01,2013-11-03 23:38:00,
2013-11-03 18:43:00,29.5,18.4,29.81,SE,135,2.7,2.7,63,0.00,CLR,SKC,0.03,WeatherDisplay:10.37,2013-11-03 23:43:00,
2013-11-03 18:48:00,29.1,17.7,29.82,SE,135,2.3,0.0,62,0.00,CLR,SKC,0.03,WeatherDisplay:10.37,2013-11-03 23:48:00,
2013-11-03 18:53:00,29.0,17.6,29.82,SE,135,0.0,0.4,62,0.00,,---,0.00,VWS V14.01,2013-11-03 23:53:00,
2013-11-03 18:58:00,29.1,17.7,29.83,WSW,248,2.7,0.0,62,0.00,CLR,SKC,0.03,WeatherDisplay:10.37,2013-11-03 23:58:00,
2013-11-03 19:03:00,29.1,17.7,29.83,West,270,2.7,0.0,62,0.00,CLR,SKC,0.03,WeatherDisplay:10.37,2013-11-04 00:03:00,
2013-11-03 19:08:00,29.0,18.4,29.83,West,270,0.0,0.0,64,0.00,,---,0.00,VWS V14.01,2013-11-04 00:08:00,
2013-11-03 19:13:00,28.8,18.1,29.83,West,270,2.7,0.0,64,0.00,CLR,SKC,0.03,WeatherDisplay:10.37,2013-11-04 00:13:00,
2013-11-03 19:18:00,28.8,18.5,29.83,SE,135,0.0,0.0,65,0.00,,---,0.00,VWS V14.01,2013-11-04 00:18:00,
2013-11-03 19:23:00,28.6,17.6,29.84,SE,135,0.0,0.0,63,0.00,,---,0.00,VWS V14.01,2013-11-04 00:23:00,
2013-11-03 19:28:00,28.6,17.6,29.84,SE,135,2.7,0.0,63,0.00,CLR,SKC,0.03,WeatherDisplay:10.37,2013-11-04 00:28:00,
2013-11-03 19:33:00,28.4,18.1,29.84,WSW,248,0.0,0.4,65,0.00,,---,0.00,VWS V14.01,2013-11-04 00:33:00,
2013-11-03 19:38:00,28.2,18.7,29.84,SE,135,2.3,0.0,67,0.00,CLR,SKC,0.03,WeatherDisplay:10.37,2013-11-04 00:38:00,
2013-11-03 19:43:00,28.3,18.1,29.85,WSW,248,0.4,0.4,65,0.00,,---,0.00,VWS V14.01,2013-11-04 00:43:00,
2013-11-03 19:48:00,28.1,18.2,29.85,SSE,158,0.0,0.4,66,0.00,,---,0.00,VWS V14.01,2013-11-04 00:48:00,
2013-11-03 19:53:00,28.1,17.9,29.85,SW,225,0.0,0.2,65,0.00,,---,0.00,VWS V14.01,2013-11-04 00:53:00,
2013-11-03 19:58:00,28.0,17.8,29.85,SW,225,2.7,0.0,65,0.00,CLR,SKC,0.03,WeatherDisplay:10.37,2013-11-04 00:58:00,
2013-11-03 20:03:00,28.1,17.9,29.85,SSW,202,0.0,0.4,65,0.00,,---,0.00,VWS V14.01,2013-11-04 01:03:00,
2013-11-03 20:08:00,27.9,18.0,29.85,SSW,202,2.7,0.0,66,0.00,CLR,SKC,0.03,WeatherDisplay:10.37,2013-11-04 01:08:00,
2013-11-03 20:13:00,27.7,18.2,29.86,SSE,158,0.2,0.2,67,0.00,,---,0.00,VWS V14.01,2013-11-04 01:13:00,
2013-11-03 20:18:00,27.4,17.5,29.86,SSE,158,0.0,0.2,66,0.00,,---,0.00,VWS V14.01,2013-11-04 01:18:00,
2013-11-03 20:23:00,27.4,17.9,29.87,SSE,158,0.0,0.0,67,0.00,,---,0.00,VWS V14.01,2013-11-04 01:23:00,
2013-11-03 20:28:00,27.1,18.0,29.87,SSE,158,2.3,0.0,68,0.00,CLR,SKC,0.03,WeatherDisplay:10.37,2013-11-04 01:28:00,
2013-11-03 20:33:00,27.2,17.7,29.87,SSE,158,0.0,0.0,67,0.00,,---,0.00,VWS V14.01,2013-11-04 01:33:00,
2013-11-03 20:38:00,27.1,18.6,29.87,SSE,158,2.7,2.7,70,0.00,CLR,SKC,0.03,WeatherDisplay:10.37,2013-11-04 01:38:00,
2013-11-03 20:43:00,27.0,18.5,29.87,South,180,0.0,0.4,70,0.00,,---,0.00,VWS V14.01,2013-11-04 01:43:00,
2013-11-03 20:48:00,27.0,18.1,29.87,SW,225,2.7,0.0,69,0.00,CLR,SKC,0.03,WeatherDisplay:10.37,2013-11-04 01:48:00,
2013-11-03 20:53:00,27.0,17.9,29.88,SW,225,0.0,0.0,68,0.00,,---,0.00,VWS V14.01,2013-11-04 01:53:00,
2013-11-03 20:57:00,27.0,17.8,29.88,SSW,202,2.7,0.0,68,0.00,CLR,SKC,0.03,WeatherDisplay:10.37,2013-11-04 01:57:00,
2013-11-03 21:03:00,27.0,18.2,29.88,SSW,202,0.0,0.0,69,0.00,,---,0.00,VWS V14.01,2013-11-04 02:03:00,
2013-11-03 21:07:00,26.8,18.0,29.88,SSW,202,2.3,0.0,69,0.00,RA,SKC,0.00,WeatherDisplay:10.37,2013-11-04 02:07:00,
2013-11-03 21:13:00,26.6,18.1,29.88,SSW,202,2.7,0.0,70,0.00,CLR,SKC,0.00,WeatherDisplay:10.37,2013-11-04 02:13:00,
2013-11-03 21:18:00,26.5,18.0,29.89,SSW,202,0.0,0.0,70,0.00,,---,0.00,VWS V14.01,2013-11-04 02:18:00,
2013-11-03 21:22:00,26.4,18.0,29.89,SSW,202,2.3,0.0,70,0.00,CLR,SKC,0.00,WeatherDisplay:10.37,2013-11-04 02:22:00,
2013-11-03 21:27:00,26.3,18.2,29.89,SSW,202,0.0,0.0,71,0.00,,---,0.00,VWS V14.01,2013-11-04 02:27:00,
2013-11-03 21:32:00,26.1,17.6,29.89,South,180,2.7,0.0,70,0.00,CLR,SKC,0.00,WeatherDisplay:10.37,2013-11-04 02:32:00,
2013-11-03 21:37:00,25.9,17.8,29.90,South,180,0.0,0.0,71,0.00,,---,0.00,VWS V14.01,2013-11-04 02:37:00,
2013-11-03 21:42:00,26.1,17.6,29.90,WSW,248,2.7,0.0,70,0.00,CLR,SKC,0.00,WeatherDisplay:10.37,2013-11-04 02:42:00,
2013-11-03 21:47:00,26.1,18.0,29.91,WSW,248,0.0,0.0,71,0.00,,---,0.00,VWS V14.01,2013-11-04 02:47:00,
2013-11-03 21:52:00,26.1,17.9,29.90,WSW,248,2.7,0.0,71,0.00,CLR,SKC,0.00,WeatherDisplay:10.37,2013-11-04 02:52:00,
2013-11-03 21:57:00,25.9,17.8,29.91,WSW,248,0.0,0.0,71,0.00,,---,0.00,VWS V14.01,2013-11-04 02:57:00,
2013-11-03 22:02:00,25.5,17.7,29.91,WSW,248,2.7,0.0,72,0.00,CLR,SKC,0.00,WeatherDisplay:10.37,2013-11-04 03:02:00,
2013-11-03 22:07:00,25.6,17.8,29.91,WSW,248,0.0,0.0,72,0.00,,---,0.00,VWS V14.01,2013-11-04 03:07:00,
2013-11-03 22:12:00,25.5,17.7,29.91,WSW,248,2.7,0.0,72,0.00,CLR,SKC,0.00,WeatherDisplay:10.37,2013-11-04 03:12:00,
2013-11-03 22:17:00,25.4,18.0,29.91,SSW,202,0.0,0.0,73,0.00,,---,0.00,VWS V14.01,2013-11-04 03:17:00,
2013-11-03 22:22:00,25.2,17.7,29.91,SSW,202,2.7,0.0,73,0.00,CLR,SKC,0.00,WeatherDisplay:10.37,2013-11-04 03:22:00,
2013-11-03 22:27:00,25.0,17.3,29.91,SSW,202,0.0,0.0,72,0.00,,---,0.00,VWS V14.01,2013-11-04 03:27:00,
2013-11-03 22:32:00,25.2,17.4,29.91,SW,225,2.7,0.0,72,0.00,CLR,SKC,0.00,WeatherDisplay:10.37,2013-11-04 03:32:00,
2013-11-03 22:37:00,25.2,17.5,29.91,SW,225,0.0,0.0,72,0.00,,---,0.00,VWS V14.01,2013-11-04 03:37:00,
2013-11-03 22:42:00,25.2,17.4,29.91,SW,225,2.3,0.0,72,0.00,CLR,SKC,0.00,WeatherDisplay:10.37,2013-11-04 03:42:00,
2013-11-03 22:47:00,24.8,17.1,29.91,SW,225,0.0,0.0,72,0.00,,---,0.00,VWS V14.01,2013-11-04 03:47:00,
2013-11-03 22:52:00,24.4,17.6,29.92,SW,225,2.7,0.0,75,0.00,CLR,SKC,0.00,WeatherDisplay:10.37,2013-11-04 03:52:00,
2013-11-03 22:57:00,24.1,17.3,29.92,SW,225,0.0,0.0,75,0.00,,---,0.00,VWS V14.01,2013-11-04 03:57:00,
2013-11-03 23:02:00,24.1,17.3,29.92,SW,225,0.0,0.0,75,0.00,,---,0.00,VWS V14.01,2013-11-04 04:02:00,
2013-11-03 23:07:00,24.3,17.2,29.92,SW,225,0.0,0.0,74,0.00,,---,0.00,VWS V14.01,2013-11-04 04:07:00,
2013-11-03 23:12:00,24.3,17.5,29.92,SW,225,2.7,0.0,75,0.00,CLR,SKC,0.00,WeatherDisplay:10.37,2013-11-04 04:12:00,